Fort Worth Spinks, TX

7:14 PM CDT on June 26, 2017 (GMT -0500)
Fort Worth Spinks

Weather History for KFWS - January, 2012

Change the Weather History Date:

Saturday, January 28, 2012

  Actual Average (KNFW) Record (KNFW)
Temperature  
Mean Temperature 41 °F -  
Max Temperature 50 °F 56 °F 81 °F (2015)
Min Temperature 32 °F 36 °F 24 °F (2014)
Degree Days  
Heating Degree Days 24    
Moisture  
Dew Point 30 °F    
Average Humidity 67    
Maximum Humidity 93    
Minimum Humidity 37    
Precipitation  
Precipitation 0.00 in - - ()
Sea Level Pressure  
Sea Level Pressure 30.39 in    
Wind  
Wind Speed 12 mph (North)    
Max Wind Speed 23 mph    
Max Gust Speed 29 mph    
Visibility 12 miles    
Events      
Averages and records for this station are not official NWS values.
T = Trace of Precipitation, MM = Missing Value Source: NWS Daily Summary

Daily Weather History Graph

Daily Weather History Graph

Search for Another Location

Airport or City:

Trip Planner

Search our weather history database for the weather conditions in past years. The results will help you decide how hot, cold, wet, or windy it might be!

Date:

Astronomy

Jan. 28, 2012 Rise Set
Actual Time 7:26 AM CST 5:58 PM CST
Civil Twilight 7:00 AM CST 6:24 PM CST
Nautical Twilight 6:30 AM CST 6:53 PM CST
Astronomical Twilight 6:01 AM CST 7:22 PM CST
Moon 10:11 AM CST (1/28) 11:23 PM CST (1/28)
Length of Visible Light 11h 23m
Length of Day
10h 31m
Waxing Crescent, 28% of the Moon is Illuminated
Jan 28
Waxing Crescent
Jan 30
First Quarter
Feb 7
Full
Feb 14
Last Quarter
Feb 21
New

Hourly Weather History & Observations

Time (CST) Temp. Windchill Dew Point Humidity Pressure Visibility Wind Dir Wind Speed Gust Speed Precip Events Conditions
12:15 AM 46.4 °F 39.5 °F 32.0 °F 57% 30.22 in 10.0 mi North 17.3 mph 23.0 mph N/A   Clear
12:35 AM 46.4 °F 40.1 °F 32.0 °F 57% 30.23 in 10.0 mi North 15.0 mph - N/A   Clear
12:55 AM 46.4 °F 38.3 °F 32.0 °F 57% 30.24 in 10.0 mi North 23.0 mph 27.6 mph N/A   Clear
1:15 AM 46.4 °F 39.0 °F 32.0 °F 57% 30.25 in 10.0 mi North 19.6 mph 28.8 mph N/A   Clear
1:35 AM 44.6 °F 37.4 °F 32.0 °F 61% 30.27 in 10.0 mi North 16.1 mph 26.5 mph N/A   Clear
1:55 AM 44.6 °F 37.2 °F 32.0 °F 61% 30.27 in 10.0 mi North 17.3 mph 26.5 mph N/A   Clear
2:15 AM 42.8 °F 34.5 °F 32.0 °F 66% 30.28 in 10.0 mi North 18.4 mph 23.0 mph N/A   Clear
2:35 AM 42.8 °F 35.8 °F 32.0 °F 66% 30.29 in 10.0 mi North 13.8 mph 27.6 mph N/A   Clear
2:55 AM 42.8 °F 35.8 °F 32.0 °F 66% 30.30 in 10.0 mi North 13.8 mph 19.6 mph N/A   Clear
3:15 AM 42.8 °F 35.4 °F 32.0 °F 66% 30.31 in 10.0 mi North 15.0 mph 20.7 mph N/A   Clear
3:35 AM 42.8 °F 36.2 °F 30.2 °F 61% 30.32 in 10.0 mi North 12.7 mph - N/A   Clear
3:55 AM 41.0 °F 34.3 °F 30.2 °F 65% 30.33 in 10.0 mi North 11.5 mph 17.3 mph N/A   Clear
4:15 AM 41.0 °F 33.9 °F 30.2 °F 65% 30.34 in 10.0 mi North 12.7 mph 17.3 mph N/A   Clear
4:35 AM 41.0 °F 34.3 °F 30.2 °F 65% 30.34 in 10.0 mi North 11.5 mph - N/A   Clear
4:55 AM 41.0 °F 33.9 °F 30.2 °F 65% 30.35 in 10.0 mi North 12.7 mph 20.7 mph N/A   Clear
5:15 AM 41.0 °F 33.9 °F 30.2 °F 65% 30.35 in 10.0 mi North 12.7 mph - N/A   Clear
5:35 AM 39.2 °F 32.0 °F 30.2 °F 70% 30.36 in 10.0 mi North 11.5 mph 17.3 mph N/A   Clear
5:55 AM 37.4 °F 30.3 °F 30.2 °F 75% 30.37 in 10.0 mi North 10.4 mph - N/A   Clear
6:15 AM 37.4 °F 29.8 °F 30.2 °F 75% 30.38 in 10.0 mi North 11.5 mph - N/A   Clear
6:35 AM 39.2 °F 32.0 °F 30.2 °F 70% 30.39 in 10.0 mi North 11.5 mph - N/A   Clear
6:55 AM 39.2 °F 32.5 °F 30.2 °F 70% 30.40 in 10.0 mi North 10.4 mph - N/A   Clear
7:15 AM 39.2 °F 32.5 °F 30.2 °F 70% 30.41 in 10.0 mi North 10.4 mph - N/A   Clear
7:35 AM 39.2 °F 33.0 °F 30.2 °F 70% 30.42 in 10.0 mi North 9.2 mph - N/A   Clear
7:50 AM 39.2 °F 33.0 °F 30.2 °F 70% 30.44 in 20.0 mi North 9.2 mph - N/A   Clear
8:49 AM 41.0 °F 35.2 °F 28.4 °F 61% 30.47 in 20.0 mi North 9.2 mph - N/A   Clear
10:48 AM 44.6 °F 38.8 °F 23.0 °F 43% 30.51 in 20.0 mi NNE 11.5 mph - N/A   Clear
11:50 AM 46.4 °F 41.1 °F 24.8 °F 43% 30.51 in 20.0 mi North 11.5 mph - N/A   Clear
12:54 PM 48.2 °F - - N/A% 30.48 in 20.0 mi NE 9.2 mph - N/A   Mostly Cloudy
1:46 PM 48.2 °F - 26.6 °F 43% 30.47 in 20.0 mi North 11.5 mph 18.4 mph N/A   Mostly Cloudy
4:47 PM 50.0 °F - 24.8 °F 37% 30.45 in 20.0 mi NNW 8.1 mph - N/A   Clear
5:47 PM 46.4 °F 43.5 °F 28.4 °F 50% 30.45 in 20.0 mi North 5.8 mph - N/A   Clear
6:50 PM 42.8 °F 40.1 °F 26.6 °F 53% 30.45 in 20.0 mi NNW 4.6 mph - N/A   Clear
7:47 PM 42.8 °F - 28.4 °F 57% 30.46 in 20.0 mi Calm Calm - N/A   Clear
8:55 PM 39.2 °F - 28.4 °F 65% 30.46 in 10.0 mi Calm Calm - N/A   Clear
9:15 PM 35.6 °F - 28.4 °F 75% 30.46 in 10.0 mi Calm Calm - N/A   Clear
9:35 PM 33.8 °F - 28.4 °F 81% 30.46 in 10.0 mi Calm Calm - N/A   Clear
9:55 PM 33.8 °F - 30.2 °F 87% 30.47 in 10.0 mi Calm Calm - N/A   Clear
10:15 PM 33.8 °F - 30.2 °F 87% 30.47 in 10.0 mi Calm Calm - N/A   Clear
10:35 PM 32.0 °F - 30.2 °F 93% 30.47 in 10.0 mi Calm Calm - N/A   Clear
10:55 PM 32.0 °F - 30.2 °F 93% 30.47 in 10.0 mi Calm Calm - N/A   Clear
11:15 PM 32.0 °F - 30.2 °F 93% 30.47 in 10.0 mi Calm Calm - N/A   Clear
11:35 PM 32.0 °F - 30.2 °F 93% 30.47 in 10.0 mi Calm Calm - N/A   Clear
11:55 PM 33.8 °F - 30.2 °F 87% 30.48 in 10.0 mi Calm Calm - N/A   Clear